Location: Cabrera Baja
(40.4089°N, 4.3354°W)
Time: 02:44:12
(UTC+00:00)

OE (NEXTSAT) - Pass Details

Date: 14 July 2020
Orbit: 431 x 439 km, 46.0° (Epoch: 03 August)

Event Time Altitude Azimuth Distance (km) Brightness Sun altitude
Exits shadow 03:53:29 16° 246° (WSW) 1,190 5.9 -11.1°
Maximum altitude 03:56:06 86° 333° (NNW) 435 4.3 -10.7°
Drops below altitude 10° 03:59:34 10° 64° (ENE) 1,529 8.5 -10.2°
Sets 04:01:41 0° 65° (ENE) 2,398 9.9 -9.9°
